Location: Bremen
(53.0793°N, 8.8017°E)
Time: 02:54:01
(UTC+02:00)

A-11 Canister half - Pass Details

Date: 24 April 2024
Orbit: 1525 x 1683 km, 47.3° (Epoch: 19 May)

Event Time Altitude Azimuth Distance (km) Brightness Sun altitude
Rises 05:07:27 0° 198° (SSW) 4,830 11.1 -8.4°
Reaches altitude 10° 05:11:12 10° 186° (S) 3,870 10.7 -8.0°
Maximum altitude 05:18:50 26° 135° (SE) 2,845 10.6 -7.0°
Drops below altitude 10° 05:26:35 10° 85° (E) 3,946 12.4 -6.0°
Sets 05:30:26 0° 74° (ENE) 4,942 13.6 -5.5°
